Weather History for Hanford, CA

Change the Weather History Date:

Monday, September 30, 2013

  Actual Average Record
Temperature  
Mean Temperature 72 °F 69 °F  
Max Temperature 85 °F 86 °F 99 °F (2010)
Min Temperature 58 °F 53 °F 41 °F (2009)
Degree Days  
Heating Degree Days 0    
Month to date heating degree days 7  
Since 1 July heating degree days 7  
Cooling Degree Days 7    
Month to date cooling degree days 312  
Year to date cooling degree days 2035  
Growing Degree Days 20 (Base 50)    
Moisture  
Dew Point 53 °F    
Average Humidity 59    
Maximum Humidity 86    
Minimum Humidity 31    
Precipitation  
Precipitation 0.00 in 0.01 in 0.82 in (1983)
Month to date precipitation 0.01 0.17  
Year to date precipitation 1.61 6.97  
Since 1 July precipitation 0.01 0.21  
Snow  
Snow 0.00 in - - ()
Month to date snowfall 0.0  
Since 1 July snowfall 0.0  
Since 1 September snowfall 0.0  
Snow Depth 0.00 in    
Sea Level Pressure  
Sea Level Pressure 30.00 in    
Wind  
Wind Speed 6 mph (NW)    
Max Wind Speed 14 mph    
Max Gust Speed 18 mph    
Visibility 10 miles    
Events      
T = Trace of Precipitation, MM = Missing Value Source: NWS Daily Summary

Daily Weather History Graph

Daily Weather History Graph

Search for Another Location

Airport:

Trip Planner

Search our weather history database for the weather conditions in past years. The results will help you decide how hot, cold, wet, or windy it might be!

Date:

Astronomy

Sep. 30, 2013 Rise Set
Actual Time 6:53 AM PDT 6:43 PM PDT
Civil Twilight 6:27 AM PDT 7:08 PM PDT
Nautical Twilight 5:57 AM PDT 7:38 PM PDT
Astronomical Twilight 5:27 AM PDT 8:08 PM PDT
Moon 2:41 AM PDT (9/30) 4:10 PM PDT (9/30)
Length of Visible Light 12h 41m
Length of Day
11h 49m
Waning Crescent, 18% of the Moon is Illuminated
Sep 30
Waning Crescent
Oct 4
New
Oct 11
First Quarter
Oct 18
Full
Oct 26
Last Quarter

Hourly Weather History & Observations

Time (PDT) Temp. Dew Point Humidity Pressure Visibility Wind Dir Wind Speed Gust Speed Precip Events Conditions
12:53 AM 66.0 °F 51.1 °F 59% 30.04 in 10.0 mi NW 10.4 mph - N/A   Clear
1:53 AM 64.0 °F 53.1 °F 67% 30.04 in 10.0 mi WNW 11.5 mph - N/A   Clear
2:53 AM 62.1 °F 54.0 °F 75% 30.03 in 10.0 mi NW 11.5 mph - N/A   Clear
3:53 AM 61.0 °F 55.0 °F 81% 30.03 in 10.0 mi NW 10.4 mph - N/A   Clear
4:53 AM 61.0 °F 55.0 °F 81% 30.04 in 10.0 mi NW 10.4 mph - N/A   Clear
5:53 AM 60.1 °F 55.0 °F 83% 30.04 in 10.0 mi NW 8.1 mph - N/A   Clear
6:53 AM 57.9 °F 54.0 °F 87% 30.06 in 10.0 mi Calm Calm - N/A   Clear
7:53 AM 60.1 °F 55.0 °F 83% 30.08 in 10.0 mi NW 4.6 mph - N/A   Clear
8:53 AM 64.0 °F 55.0 °F 73% 30.08 in 10.0 mi NNW 5.8 mph - N/A   Clear
9:53 AM 69.1 °F 55.9 °F 63% 30.08 in 10.0 mi Calm Calm - N/A   Clear
10:53 AM 73.0 °F 55.9 °F 55% 30.07 in 10.0 mi NW 5.8 mph - N/A   Clear
11:53 AM 75.9 °F 55.0 °F 48% 30.05 in 10.0 mi Variable 5.8 mph - N/A   Clear
12:53 PM 78.1 °F 54.0 °F 43% 30.03 in 10.0 mi WNW 5.8 mph - N/A   Clear
1:53 PM 80.1 °F 51.1 °F 36% 29.99 in 10.0 mi West 3.5 mph - N/A   Clear
2:53 PM 82.9 °F 50.0 °F 32% 29.96 in 10.0 mi Variable 4.6 mph - N/A   Clear
3:53 PM 82.9 °F 48.9 °F 31% 29.95 in 10.0 mi WNW 4.6 mph - N/A   Clear
4:53 PM 82.9 °F 48.9 °F 31% 29.93 in 10.0 mi NW 6.9 mph - N/A   Clear
5:53 PM 82.0 °F 50.0 °F 33% 29.92 in 10.0 mi NNW 6.9 mph - N/A   Clear
6:53 PM 77.0 °F 50.0 °F 39% 29.92 in 10.0 mi NW 6.9 mph - N/A   Clear
7:53 PM 75.9 °F 50.0 °F 40% 29.92 in 10.0 mi NW 8.1 mph - N/A   Clear
8:53 PM 73.9 °F 50.0 °F 43% 29.94 in 10.0 mi WNW 9.2 mph - N/A   Clear
9:53 PM 71.1 °F 51.1 °F 49% 29.95 in 10.0 mi NNW 8.1 mph - N/A   Clear
10:53 PM 69.1 °F 53.1 °F 57% 29.95 in 10.0 mi NNW 8.1 mph - N/A   Clear
11:53 PM 68.0 °F 54.0 °F 61% 29.95 in 10.0 mi NW 9.2 mph - N/A   Clear